Location: Baggettsville
(36.4767°N, 86.7303°W)
Time: 17:25:26
(UTC+00:00)

N. Korean satellite - Pass Details

Date: 19 September 2021
Orbit: 450 x 495 km, 97.3° (Epoch: 15 October)

Event Time Altitude Azimuth Distance (km) Brightness Sun altitude
Rises 11:03:21 0° 10° (N) 2,505 10.4 -6.7°
Reaches altitude 10° 11:05:23 10° 10° (N) 1,633 9.5 -6.3°
Maximum altitude 11:08:54 83° 281° (W) 482 6.5 -5.6°
Drops below altitude 10° 11:12:26 10° 195° (SSW) 1,647 9.1 -4.9°
Sets 11:14:30 0° 194° (SSW) 2,530 10.0 -4.5°
